Location: Unspecified
(0.0000°N, 0.0000°E)
Time: 02:08:03
(UTC+00:00)

COSMO-SKYMED 1 - Visible Passes

Search period start: 06 March 2026 00:00
Search period end: 16 March 2026 00:00
Orbit: 577 x 578 km, 97.9° (Epoch: 5 March)

Date Brightness Start Highest point End Pass type
(mag) Time Alt. Az. Time Alt. Az. Time Alt. Az.
11 Mar 3.9 18:25:28 10° N 18:29:21 43° WNW 18:33:15 10° SSW visible
12 Mar 4.2 18:29:43 10° N 18:33:29 37° WNW 18:37:18 10° SSW visible
13 Mar 4.5 18:33:58 10° NNW 18:37:38 32° WNW 18:41:19 10° SW visible
14 Mar 4.8 18:38:14 10° NNW 18:41:45 28° WNW 18:45:18 10° SW visible
15 Mar 6.1 05:08:01 10° E 05:08:54 11° ENE 05:09:47 10° ENE visible
15 Mar 5.1 18:42:31 10° NNW 18:45:53 25° WNW 18:49:15 10° SW visible
